Change the Weather History Date:

Monday, February 25, 2013

  Actual Average Record
Temperature  
Mean Temperature 45 °F 44 °F  
Max Temperature 51 °F 51 °F 64 °F (1992)
Min Temperature 38 °F 37 °F 20 °F (2011)
Degree Days  
Heating Degree Days 20 21  
Month to date heating degree days 510 543  
Since 1 July heating degree days 3084 3192  
Cooling Degree Days 0 0  
Month to date cooling degree days 0 0  
Year to date cooling degree days 0 0  
Moisture  
Dew Point 35 °F    
Average Humidity 65    
Maximum Humidity 89    
Minimum Humidity 41    
Precipitation  
Precipitation 0.09 in 0.13 in 0.98 in (1948)
Month to date precipitation 1.06 3.13  
Year to date precipitation 5.22 8.70  
Snow  
Snow 0.00 in - T in (2009)
Month to date snowfall 0.0  
Since 1 July snowfall 0.6  
Snow Depth 0.00 in    
Sea Level Pressure  
Sea Level Pressure 30.08 in    
Wind  
Wind Speed 16 mph (SSW)    
Max Wind Speed 29 mph    
Max Gust Speed 39 mph    
Visibility 10 miles    
Events Rain    
T = Trace of Precipitation, MM = Missing Value Source: NWS Daily Summary

Daily Weather History Graph

Daily Weather History Graph

Search for Another Location

Airport or City:

Trip Planner

Search our weather history database for the weather conditions in past years. The results will help you decide how hot, cold, wet, or windy it might be!

Date:

Astronomy

Feb. 25, 2013 Rise Set
Actual Time 6:56 AM PST 5:48 PM PST
Civil Twilight 6:25 AM PST 6:19 PM PST
Nautical Twilight 5:49 AM PST 6:55 PM PST
Astronomical Twilight 5:14 AM PST 7:31 PM PST
Moon 6:12 PM PST (2/25) 6:26 AM PST (2/25)
Length of Visible Light 11h 54m
Length of Day
10h 52m
Full, 100% of the Moon is Illuminated
Feb 25
Full
Feb 25
Full
Mar 4
Last Quarter
Mar 11
New
Mar 19
First Quarter

Hourly Weather History & Observations

Time (PST) Temp. Windchill Dew Point Humidity Pressure Visibility Wind Dir Wind Speed Gust Speed Precip Events Conditions
12:26 AM 44.6 °F 37.8 °F 35.6 °F 71% 29.94 in 10.0 mi South 15.0 mph 26.5 mph 0.02 in Rain Light Rain
12:53 AM 43.0 °F 36.4 °F 36.0 °F 76% 29.95 in 10.0 mi South 12.7 mph 21.9 mph 0.03 in Rain Light Rain
1:53 AM 42.1 °F 36.1 °F 37.9 °F 85% 29.93 in 8.0 mi South 10.4 mph - 0.04 in Rain Light Rain
2:53 AM 42.1 °F 34.5 °F 39.0 °F 89% 29.93 in 10.0 mi South 15.0 mph 23.0 mph 0.02 in Rain Light Rain
3:13 AM 42.8 °F 34.5 °F 39.2 °F 87% 29.90 in 10.0 mi SSW 18.4 mph 27.6 mph N/A   Overcast
3:53 AM 43.0 °F 34.0 °F 39.0 °F 86% 29.94 in 10.0 mi SSW 21.9 mph 28.8 mph N/A   Overcast
4:17 AM 42.8 °F 33.5 °F 37.4 °F 81% 29.92 in 10.0 mi South 23.0 mph 28.8 mph N/A   Overcast
4:35 AM 42.8 °F 34.5 °F 37.4 °F 81% 29.94 in 10.0 mi SSW 18.4 mph 26.5 mph N/A   Overcast
4:53 AM 43.0 °F 34.5 °F 37.9 °F 82% 29.97 in 10.0 mi South 19.6 mph 28.8 mph N/A   Overcast
5:33 AM 42.8 °F 34.3 °F 37.4 °F 81% 29.95 in 10.0 mi South 19.6 mph 28.8 mph N/A   Overcast
5:45 AM 42.8 °F 34.3 °F 37.4 °F 81% 29.96 in 10.0 mi SSW 19.6 mph 27.6 mph N/A   Overcast
5:53 AM 43.0 °F 33.8 °F 37.9 °F 82% 29.98 in 10.0 mi SSW 23.0 mph 31.1 mph N/A   Overcast
6:53 AM 42.1 °F 33.1 °F 37.0 °F 82% 29.99 in 10.0 mi SSW 20.7 mph 29.9 mph N/A   Overcast
7:53 AM 42.1 °F 33.3 °F 37.0 °F 82% 30.00 in 10.0 mi SW 19.6 mph 35.7 mph N/A   Overcast
8:18 AM 42.8 °F 34.0 °F 37.4 °F 81% 29.99 in 10.0 mi SSW 20.7 mph 29.9 mph N/A   Overcast
8:53 AM 43.0 °F 33.8 °F 37.0 °F 80% 30.03 in 10.0 mi SW 23.0 mph 32.2 mph N/A   Mostly Cloudy
9:53 AM 44.1 °F 35.9 °F 37.0 °F 76% 30.05 in 10.0 mi SSW 19.6 mph 27.6 mph N/A   Mostly Cloudy
10:10 AM 44.6 °F 36.4 °F 37.4 °F 76% 30.03 in 10.0 mi SSW 20.7 mph 28.8 mph N/A   Mostly Cloudy
10:53 AM 44.1 °F 35.9 °F 36.0 °F 73% 30.06 in 10.0 mi SSW 19.6 mph 29.9 mph N/A   Mostly Cloudy
11:53 AM 46.9 °F - 36.0 °F 66% 30.09 in 10.0 mi SSW 18.4 mph 28.8 mph N/A   Mostly Cloudy
12:53 PM 48.9 °F - 34.0 °F 56% 30.10 in 10.0 mi SW 21.9 mph 36.8 mph N/A   Mostly Cloudy
1:53 PM 50.0 °F - 32.0 °F 50% 30.12 in 10.0 mi WSW 21.9 mph 34.5 mph N/A   Partly Cloudy
2:53 PM 51.1 °F - 28.0 °F 41% 30.13 in 10.0 mi SW 17.3 mph 25.3 mph N/A   Partly Cloudy
3:53 PM 48.9 °F - 33.1 °F 54% 30.16 in 10.0 mi SSW 17.3 mph 28.8 mph N/A   Scattered Clouds
4:53 PM 46.9 °F - 30.0 °F 52% 30.19 in 10.0 mi SW 9.2 mph 20.7 mph N/A   Scattered Clouds
5:53 PM 43.0 °F 37.2 °F 33.1 °F 68% 30.21 in 10.0 mi SSW 10.4 mph - N/A   Scattered Clouds
6:53 PM 42.1 °F 34.5 °F 33.1 °F 70% 30.24 in 10.0 mi SSW 15.0 mph - N/A   Scattered Clouds
7:53 PM 42.1 °F 34.9 °F 33.1 °F 70% 30.26 in 10.0 mi SSW 13.8 mph - N/A   Partly Cloudy
8:53 PM 41.0 °F 36.4 °F 33.1 °F 73% 30.29 in 10.0 mi SSW 6.9 mph - N/A   Partly Cloudy
9:53 PM 39.0 °F 33.4 °F 32.0 °F 76% 30.31 in 10.0 mi South 8.1 mph - N/A   Partly Cloudy
10:53 PM 39.0 °F 32.8 °F 32.0 °F 76% 30.32 in 10.0 mi SSE 9.2 mph - N/A   Partly Cloudy
11:46 PM 39.2 °F 33.0 °F 33.8 °F 81% 30.30 in 10.0 mi South 9.2 mph - N/A   Mostly Cloudy
11:53 PM 39.0 °F 34.0 °F 33.1 °F 79% 30.33 in 10.0 mi South 6.9 mph - N/A   Mostly Cloudy